Location: Sobotiste
(48.7170°N, 17.4000°E)
Time: 07:05:24
(UTC+02:00)

CAS-6 - Pass Details

Date: 14 March 2026
Orbit: 601 x 618 km, 97.8° (Epoch: 15 April)

Event Time Altitude Azimuth Distance (km) Brightness Sun altitude
Exits shadow 22:08:51 13° 334° (NNW) 1,771 ? -37.8°
Drops below altitude 10° 22:09:20 10° 336° (NNW) 1,956 ? -37.9°
Sets 22:11:35 0° 342° (NNW) 2,866 ? -38.1°
